DW4070 Stamford CT US current weather conditions

sailwx.info

Wind from 009 at 0 knots gusting 4

Air temperature -0.0° C
Dewpoint -8.0° C

Last reported at 2019-Dec-12 19:01 UTC.
Time now 2019-Dec-12 19:40 UTC

Location: N 41°08' W 073°33'.
View on Google Maps.

See reports from other nearby stations

  
Tides and Currents Weather Stations Pressure Air Temp Water Temp Dewpoint Dewpoint Depression Visibility Wind Speed Wind Dir Waves Ship Positions
date/time (UTC)wind fromknots sea level pressurealtimeterstation pressurevisibilityair tempwater tempwave heightnotes
2019-Dec-12 19:01 009 0 gusting 4 -0.0
2019-Dec-12 18:45 030 -0.0
2019-Dec-12 18:30 306 -0.0
2019-Dec-12 18:15 018 -0.0
2019-Dec-12 18:00 348 -0.6
2019-Dec-12 17:45 356 0 gusting 2 -0.0
2019-Dec-12 17:30 295 -0.6
2019-Dec-12 17:15 317 -0.6
2019-Dec-12 17:00 306 -0.6
2019-Dec-12 16:45 338 -0.6
2019-Dec-12 16:30 360 0 gusting 2 -1.1
2019-Dec-12 16:15 006 -1.1
2019-Dec-12 16:02 023 -1.7
2019-Dec-12 15:47 275 -2.2
2019-Dec-12 15:32 321 0 gusting 3 -2.2
2019-Dec-12 15:18 002 -2.8
2019-Dec-12 15:03 271 -3.3
2019-Dec-12 14:47 214 -3.3
2019-Dec-12 14:33 244 -3.9
2019-Dec-12 14:18 244 -4.4
2019-Dec-12 14:02 030 0 gusting 3 -4.4
2019-Dec-12 13:46 015 1 gusting 3 -5.0
2019-Dec-12 13:31 248 -5.6
2019-Dec-12 13:17 248 -5.6
2019-Dec-12 13:01 248 -6.1
2019-Dec-12 12:46 248 -6.1
2019-Dec-12 12:30 248 -6.1
2019-Dec-12 12:16 248 -6.1
2019-Dec-12 12:00 248 -6.1
2019-Dec-12 11:47 247 -6.1
2019-Dec-12 11:30 247 -6.1
2019-Dec-12 11:17 230 -6.1
2019-Dec-12 11:00 230 -6.1
2019-Dec-12 10:46 230 -5.6
2019-Dec-12 10:31 230 -5.6
2019-Dec-12 10:16 230 -5.6
2019-Dec-12 10:01 269 -6.1
2019-Dec-12 09:45 274 -6.1
2019-Dec-12 09:30 274 -5.6
2019-Dec-12 09:15 274 -5.6
2019-Dec-12 09:00 274 -5.0
2019-Dec-12 08:45 274 -5.0
2019-Dec-12 08:30 274 -4.4
2019-Dec-12 08:03 288 -4.4
2019-Dec-12 07:47 288 -3.9
2019-Dec-12 07:31 025 -3.9
2019-Dec-12 07:02 356 -3.9
2019-Dec-12 06:46 356 -3.9
2019-Dec-12 06:33 356 -3.9
2019-Dec-12 06:16 356 -3.3
2019-Dec-12 06:01 356 -3.3
2019-Dec-12 05:47 161 -2.8
2019-Dec-12 05:31 139 -2.8
2019-Dec-12 05:16 148 -2.2
2019-Dec-12 05:01 352 -2.2
2019-Dec-12 04:46 328 0 gusting 4 -2.2
2019-Dec-12 04:30 358 -2.2
2019-Dec-12 04:15 268 -2.2
2019-Dec-12 04:00 268 -2.2
2019-Dec-12 03:45 007 -2.2
2019-Dec-12 03:30 246 -2.2
2019-Dec-12 03:15 262 0 gusting 5 -2.2
2019-Dec-12 03:00 288 -1.7
2019-Dec-12 02:47 063 -1.7
2019-Dec-12 02:32 265 -1.7
2019-Dec-12 02:16 074 -1.1
2019-Dec-12 02:02 290 -1.1
2019-Dec-12 01:47 358 -1.1
2019-Dec-12 01:32 174 -1.1
2019-Dec-12 01:16 049 0 gusting 6 -1.1
2019-Dec-12 01:02 160 -0.6
2019-Dec-12 00:46 144 -0.6
2019-Dec-12 00:31 266 -0.6
2019-Dec-12 00:15 250 -0.6
2019-Dec-12 00:01 222 -0.6
2019-Dec-11 23:46 094 -0.6
2019-Dec-11 23:30 189 -0.6
2019-Dec-11 23:15 189 -0.6
2019-Dec-11 23:01 216 -0.6
2019-Dec-11 22:45 194 -0.6
2019-Dec-11 22:31 195 -0.6
2019-Dec-11 22:15 195 -0.6
2019-Dec-11 22:00 195 -0.6
2019-Dec-11 21:46 195 -0.0
2019-Dec-11 21:31 195 -0.0
2019-Dec-11 21:16 195 -0.0
2019-Dec-11 21:01 195 0.6
2019-Dec-11 20:45 195 0.6
2019-Dec-11 20:31 195 0.6
2019-Dec-11 20:15 181 0.6
2019-Dec-11 20:00 176 0.6
2019-Dec-11 19:47 182 0.6
2019-Dec-11 19:30 184 0 gusting 3 0.6
2019-Dec-11 19:15 142 0.6
2019-Dec-11 19:01 213 0.6
2019-Dec-11 18:45 212 0.6
2019-Dec-11 18:30 221 0.6
2019-Dec-11 18:16 221 0.6
2019-Dec-11 18:01 221 0.6
2019-Dec-11 17:46 220 0.6
2019-Dec-11 17:31 220 0.6
2019-Dec-11 17:15 359 0.6
2019-Dec-11 17:00 359 -0.0
2019-Dec-11 16:45 359 -0.0
2019-Dec-11 16:30 359 -0.0
2019-Dec-11 16:15 359 -0.6
2019-Dec-11 16:00 359 -0.6
2019-Dec-11 15:45 359 -0.6
2019-Dec-11 15:30 359 -1.1
2019-Dec-11 15:15 359 -1.1
2019-Dec-11 15:00 359 -1.1
2019-Dec-11 14:45 359 -1.1
2019-Dec-11 14:30 359 -1.1
2019-Dec-11 14:15 359 -1.1
2019-Dec-11 14:00 359 -1.1
2019-Dec-11 13:47 359 -1.1
2019-Dec-11 13:31 359 -1.1
2019-Dec-11 13:17 359 -1.1
2019-Dec-11 13:03 359 -1.1
2019-Dec-11 12:48 359 -1.1
2019-Dec-11 12:31 359 -1.1
2019-Dec-11 12:17 359 -1.1
2019-Dec-11 12:02 359 -1.1
2019-Dec-11 11:49 359 -1.1
2019-Dec-11 11:31 359 -1.1
2019-Dec-11 11:16 359 -1.1
2019-Dec-11 11:01 359 -1.1
2019-Dec-11 10:46 359 -1.1
2019-Dec-11 10:32 359 -0.6
2019-Dec-11 10:16 021 -0.6
2019-Dec-11 10:00 359 -0.6
2019-Dec-11 09:46 355 -0.0
2019-Dec-11 09:31 336 -0.0
2019-Dec-11 09:16 002 -0.0
2019-Dec-11 09:01 014 -0.0
2019-Dec-11 08:46 314 -0.0
2019-Dec-11 08:31 025 0.6
2019-Dec-11 08:16 337 0.6
2019-Dec-11 08:01 349 0.6
2019-Dec-11 07:46 354 1.1
2019-Dec-11 07:30 354 1.1
2019-Dec-11 07:15 354 1.7
2019-Dec-11 07:00 354 1.7
2019-Dec-11 06:45 354 2.2
2019-Dec-11 06:32 354 2.8
2019-Dec-11 06:18 006 2.8
2019-Dec-11 06:03 274 2.8
2019-Dec-11 05:48 292 3.3
2019-Dec-11 05:32 268 0 gusting 4 3.3
2019-Dec-11 05:16 319 3.9
2019-Dec-11 05:02 001 3.9
2019-Dec-11 04:46 318 2 gusting 7 4.4
2019-Dec-11 04:32 276 0 gusting 5 4.4
2019-Dec-11 04:16 013 0 gusting 5 5.0
2019-Dec-11 04:01 359 1 gusting 4 5.0
2019-Dec-11 03:46 266 5.6
2019-Dec-11 03:30 321 5.6
2019-Dec-11 03:16 255 5.6
2019-Dec-11 03:00 238 5.6
2019-Dec-11 02:46 321 0 gusting 6 6.1
2019-Dec-11 02:31 238 6.1
2019-Dec-11 02:15 264 0 gusting 6 6.7
2019-Dec-11 02:00 321 1 gusting 6 6.7
2019-Dec-11 01:45 248 0 gusting 6 7.2
2019-Dec-11 01:30 262 1 gusting 9 7.8
2019-Dec-11 01:15 250 7.8
2019-Dec-11 01:03 035 8.3
2019-Dec-11 00:46 034 8.3
2019-Dec-11 00:33 351 8.9
2019-Dec-11 00:20 359 1 gusting 9 9.4
2019-Dec-11 00:03 356 2 gusting 5 10.0
2019-Dec-10 23:50 346 10.6
2019-Dec-10 23:32 297 10.6
2019-Dec-10 23:18 344 10.6
2019-Dec-10 23:02 060 10.6
2019-Dec-10 22:47 154 10.6
2019-Dec-10 22:31 122 11.1
2019-Dec-10 22:17 122 11.1
2019-Dec-10 22:01 206 11.1
2019-Dec-10 21:47 166 10.6
2019-Dec-10 21:32 166 10.6
2019-Dec-10 21:16 166 10.6
2019-Dec-10 21:01 166 10.6
2019-Dec-10 20:46 166 11.1
2019-Dec-10 20:31 166 11.1
2019-Dec-10 20:15 166 11.1
2019-Dec-10 20:01 166 11.7
2019-Dec-10 19:46 166 11.7
2019-Dec-10 19:31 166 11.7
2019-Dec-10 19:16 228 11.7
2019-Dec-10 19:00 228 11.7